Torna al catalogo

STARLINK-37713

AttivoComunicazioniSSO
NORAD 69212·PAYLOAD·🇺🇸 United States

Lanciato May 26, 2026 da Vandenberg Space Force Base

Loading…

Prossimi Passaggi (prossime 24 ore)

TLE

AggiornatoSource: CelesTrak SupGP

Epoca: Sep 15, 2026, 04:03 UTC

1 69212C 26115B   26258.16923611 -.00067120  00000+0 -20839-2 0  2586
2 69212  97.2833 274.2743 0001429  89.7035 112.9439 15.33468000    11

Traccia STARLINK-37713 in tempo reale con AllMySat

Download on the App Store